Weather History for Fryeburg, ME

Change the Weather History Date:

Friday, March 29, 2013

  Actual Average Record
Temperature  
Mean Temperature 41 °F -  
Max Temperature 50 °F 44 °F 66 °F (1998)
Min Temperature 30 °F 24 °F 15 °F (2011)
Degree Days  
Heating Degree Days 24    
Moisture  
Dew Point 29 °F    
Average Humidity 60    
Maximum Humidity 85    
Minimum Humidity 44    
Precipitation  
Precipitation 0.00 in - - ()
Sea Level Pressure  
Sea Level Pressure 30.00 in    
Wind  
Wind Speed 4 mph (WNW)    
Max Wind Speed 8 mph    
Max Gust Speed -    
Visibility 10 miles    
Events Rain    
Averages and records for this station are not official NWS values.
T = Trace of Precipitation, MM = Missing Value Source: NWS Daily Summary

Daily Weather History Graph

Daily Weather History Graph

Search for Another Location

Airport:

Trip Planner

Search our weather history database for the weather conditions in past years. The results will help you decide how hot, cold, wet, or windy it might be!

Date:

Astronomy

Mar. 29, 2013 Rise Set
Actual Time 6:30 AM EDT 7:07 PM EDT
Civil Twilight 6:01 AM EDT 7:36 PM EDT
Nautical Twilight 5:26 AM EDT 8:10 PM EDT
Astronomical Twilight 4:51 AM EDT 8:46 PM EDT
Moon 10:11 PM EDT (3/29) 7:30 AM EDT (3/29)
Length of Visible Light 13h 35m
Length of Day
12h 37m
Waning Gibbous, 93% of the Moon is Illuminated
Mar 29
Waning Gibbous
Apr 3
Last Quarter
Apr 10
New
Apr 18
First Quarter
Apr 25
Full

Hourly Weather History & Observations

Time (EDT) Temp. Windchill Dew Point Humidity Pressure Visibility Wind Dir Wind Speed Gust Speed Precip Events Conditions
12:54 AM 39.9 °F 36.7 °F 28.9 °F 65% 30.00 in 10.0 mi West 4.6 mph - N/A   Overcast
1:54 AM 34.0 °F - 28.0 °F 79% 29.99 in 10.0 mi Calm Calm - N/A   Overcast
2:54 AM 42.1 °F 37.7 °F 30.0 °F 62% 29.98 in 10.0 mi WSW 6.9 mph - N/A   Overcast
3:54 AM 42.1 °F 39.2 °F 30.0 °F 62% 29.97 in 10.0 mi WSW 4.6 mph - N/A   Overcast
4:54 AM 39.0 °F - 30.0 °F 70% 29.98 in 10.0 mi Calm Calm - N/A   Overcast
5:54 AM 34.0 °F - 28.9 °F 82% 29.99 in 10.0 mi Calm Calm - N/A   Overcast
6:54 AM 32.0 °F - 28.0 °F 85% 30.00 in 10.0 mi Calm Calm - N/A   Clear
7:54 AM 42.1 °F 39.2 °F 33.1 °F 70% 30.01 in 10.0 mi SSW 4.6 mph - N/A   Clear
8:54 AM 46.9 °F - 32.0 °F 56% 30.01 in 10.0 mi WSW 8.1 mph - N/A   Clear
9:54 AM 50.0 °F - 32.0 °F 50% 30.01 in 10.0 mi Variable 5.8 mph - 0.00 in   Mostly Cloudy
10:54 AM 48.9 °F - 30.9 °F 50% 30.01 in 10.0 mi NNW 5.8 mph - 0.00 in   Overcast
11:54 AM 48.9 °F - 30.9 °F 50% 30.01 in 10.0 mi NNW 6.9 mph - N/A   Overcast
12:54 PM 50.0 °F - 30.9 °F 48% 30.00 in 10.0 mi North 5.8 mph - N/A   Overcast
1:54 PM 48.0 °F - 30.0 °F 50% 29.99 in 10.0 mi Variable 3.5 mph - 0.00 in Rain Light Rain
2:54 PM 48.0 °F - 30.0 °F 50% 29.98 in 10.0 mi North 6.9 mph - 0.00 in   Overcast
3:54 PM 48.0 °F - 28.0 °F 46% 29.97 in 10.0 mi WNW 8.1 mph - N/A   Overcast
4:54 PM 48.0 °F - 27.0 °F 44% 29.97 in 10.0 mi WNW 5.8 mph - N/A   Overcast
5:54 PM 46.0 °F 43.9 °F 27.0 °F 47% 29.99 in 10.0 mi West 4.6 mph - N/A   Overcast
6:54 PM 45.0 °F 41.2 °F 26.1 °F 48% 29.99 in 10.0 mi West 6.9 mph - 0.00 in   Overcast
7:54 PM 42.1 °F 37.7 °F 27.0 °F 55% 30.01 in 10.0 mi West 6.9 mph - N/A   Scattered Clouds
8:54 PM 41.0 °F 37.1 °F 27.0 °F 57% 30.02 in 10.0 mi West 5.8 mph - 0.00 in   Clear
9:54 PM 39.0 °F - 27.0 °F 62% 30.03 in 10.0 mi Calm Calm - N/A   Partly Cloudy
10:54 PM 34.0 °F - 26.1 °F 73% 30.03 in 10.0 mi Calm Calm - N/A   Overcast
11:54 PM 30.9 °F - 26.1 °F 82% 30.03 in 10.0 mi Calm Calm - N/A   Mostly Cloudy